Date String (YYYY-MM-DD hh:mm:ss) UTC,Instrument flags,Ambient pressure (hPa),Sample flow (lpm),Bypass flow (lpm),Sample temperature (°C),Ambient temperature (°C),ASC tube jacket temperature (°C),LED temperature (°C),Box temperature (°C),Sample RH (%),Span deviation,Mass concentration (μg/m³),Mass concentration (μg/m³),Mass concentration (μg/m³)
DateTimeUTC,F1_M11,P_M11,Q1_M11,Q2_M11,T1_M11,T2_M11,T3_M11,T4_M11,T5_M11,U1_M11,ZSPAN_M11,X0_M11,X2_M11,X1_M11
2021-12-12 05:00:00,,0820.7,4.99,0.00,22.6,22.5,00.0,31.4,24.3,09.9,0000.0,0001.83,0001.16,0000.93
2021-12-12 05:01:00,,0820.7,5.01,0.00,22.6,22.4,00.0,31.4,24.3,09.9,0000.0,0001.80,0001.17,0000.96
2021-12-12 05:02:00,,0820.6,4.99,0.00,22.6,22.3,00.0,31.4,24.3,09.9,0000.0,0001.75,0001.17,0000.97
2021-12-12 05:03:00,,0820.6,5.00,0.00,22.6,22.2,00.0,31.4,24.2,09.9,0000.0,0001.79,0001.19,0000.99
2021-12-12 05:04:00,,0820.7,5.00,0.00,22.5,22.1,00.0,31.5,24.2,09.9,0000.0,0001.81,0001.20,0000.99
2021-12-12 05:05:00,,0820.7,5.00,0.00,22.5,22.0,00.0,31.5,24.2,09.9,0000.0,0001.77,0001.18,0000.99
2021-12-12 05:06:00,,0820.7,5.01,0.00,22.5,21.9,00.0,31.5,24.2,09.9,0000.0,0002.68,0001.19,0000.99
2021-12-12 05:07:00,,0820.7,5.00,0.00,22.5,21.9,00.0,31.5,24.2,09.9,0000.0,0002.56,0001.15,0000.99
2021-12-12 05:08:00,,0820.8,4.99,0.00,22.5,21.9,00.0,31.5,24.2,09.8,0000.0,0002.56,0001.17,0001.02
2021-12-12 05:09:00,,0820.8,5.02,0.00,22.5,21.9,00.0,31.5,24.2,09.8,0000.0,0002.64,0001.23,0001.06
2021-12-12 05:10:00,,0820.7,4.98,0.00,22.5,21.8,00.0,31.5,24.1,09.6,0000.0,0002.75,0001.30,0001.10
2021-12-12 05:11:00,,0820.7,5.00,0.00,22.5,21.8,00.0,31.5,24.1,09.6,0000.0,0002.89,0001.37,0001.14
2021-12-12 05:12:00,,0820.7,5.01,0.00,22.5,21.8,00.0,31.5,24.1,09.6,0000.0,0002.96,0001.41,0001.17
2021-12-12 05:13:00,,0820.7,4.99,0.00,22.5,21.8,00.0,31.5,24.1,09.7,0000.0,0003.02,0001.44,0001.21
2021-12-12 05:14:00,,0820.7,5.00,0.00,22.5,21.8,00.0,31.5,24.2,09.7,0000.0,0003.84,0001.48,0001.24
2021-12-12 05:15:00,,0820.7,5.00,0.00,22.5,21.8,00.0,31.5,24.1,09.9,0000.0,0004.17,0001.54,0001.27
2021-12-12 05:16:00,,0820.8,5.01,0.00,22.4,21.8,00.0,31.5,24.2,10.0,0000.0,0004.24,0001.56,0001.28
2021-12-12 05:17:00,,0820.9,5.00,0.00,22.5,21.8,00.0,31.5,24.2,09.3,0000.0,0003.68,0001.67,0001.34
2021-12-12 05:18:00,,0820.8,5.01,0.00,22.4,21.8,00.0,31.5,24.2,09.6,0000.0,0003.67,0001.78,0001.40
2021-12-12 05:19:00,,0820.8,4.99,0.00,22.4,21.8,00.0,31.5,24.1,09.6,0000.0,0003.64,0001.81,0001.45
2021-12-12 05:20:00,,0820.9,5.00,0.00,22.4,21.8,00.0,31.5,24.2,09.5,0000.0,0003.78,0001.88,0001.51
2021-12-12 05:21:00,,0820.9,5.01,0.00,22.4,21.8,00.0,31.5,24.1,09.6,0000.0,0004.11,0001.90,0001.54
2021-12-12 05:22:00,,0820.9,4.99,0.00,22.4,21.8,00.0,31.5,24.2,09.6,0000.0,0004.07,0001.88,0001.54
2021-12-12 05:23:00,,0821.0,5.00,0.00,22.4,21.8,00.0,31.5,24.2,09.6,0000.0,0004.53,0001.96,0001.57
2021-12-12 05:24:00,,0821.0,5.01,0.00,22.4,21.8,00.0,31.5,24.2,09.4,0000.0,0006.39,0002.02,0001.59
2021-12-12 05:25:00,,0820.9,4.99,0.00,22.4,21.8,00.0,31.5,24.2,09.3,0000.0,0005.90,0002.09,0001.63
2021-12-12 05:26:00,,0820.9,5.01,0.00,22.4,21.8,00.0,31.4,24.2,09.2,0000.0,0005.77,0002.13,0001.66
2021-12-12 05:27:00,,0821.0,5.00,0.00,22.5,21.8,00.0,31.5,24.2,09.0,0000.0,0005.92,0002.20,0001.71
2021-12-12 05:28:00,,0821.0,5.01,0.00,22.5,21.8,00.0,31.4,24.3,08.9,0000.0,0005.84,0002.19,0001.71
2021-12-12 05:29:00,,0821.0,5.00,0.00,22.5,21.8,00.0,31.4,24.3,08.8,0000.0,0005.74,0002.17,0001.74
2021-12-12 05:30:00,,0820.9,4.99,0.00,22.5,21.8,00.0,31.4,24.2,08.7,0000.0,0006.11,0002.31,0001.82
2021-12-12 05:31:00,,0820.9,4.99,0.00,22.5,21.8,00.0,31.5,24.2,08.7,0000.0,0006.84,0002.43,0001.86
2021-12-12 05:32:00,,0820.9,5.01,0.00,22.5,21.8,00.0,31.4,24.2,08.9,0000.0,0007.39,0002.54,0001.90
2021-12-12 05:33:00,,0820.9,4.99,0.00,22.4,21.8,00.0,31.4,24.2,09.4,0000.0,0007.58,0002.61,0001.94
2021-12-12 05:34:00,,0820.9,5.00,0.00,22.4,21.8,00.0,31.4,24.1,09.7,0000.0,0007.58,0002.56,0001.92
2021-12-12 05:35:00,,0821.0,5.01,0.00,22.4,21.7,00.0,31.4,24.1,10.0,0000.0,0006.07,0002.51,0001.89
2021-12-12 05:36:00,,0820.9,5.01,0.00,22.4,21.7,00.0,31.4,24.1,10.2,0000.0,0006.22,0002.44,0001.82
2021-12-12 05:37:00,,0820.8,4.99,0.00,22.4,21.7,00.0,31.4,24.1,10.2,0000.0,0006.16,0002.37,0001.77
2021-12-12 05:38:00,,0820.7,5.00,0.00,22.4,21.7,00.0,31.4,24.1,10.1,0000.0,0006.06,0002.30,0001.72
2021-12-12 05:39:00,,0820.7,5.00,0.00,22.4,21.7,00.0,31.4,24.0,10.3,0000.0,0006.60,0002.26,0001.69
2021-12-12 05:40:00,,0820.6,4.99,0.00,22.4,21.7,00.0,31.4,24.0,10.3,0000.0,0006.55,0002.21,0001.62
2021-12-12 05:41:00,,0820.6,5.00,0.00,22.4,21.7,00.0,31.4,24.0,10.3,0000.0,0006.30,0002.05,0001.50
2021-12-12 05:42:00,,0820.5,5.01,0.00,22.4,21.6,00.0,31.4,24.0,10.2,0000.0,0005.48,0001.86,0001.37
2021-12-12 05:43:00,,0820.6,4.99,0.00,22.3,21.6,00.0,31.4,24.0,10.3,0000.0,0004.49,0001.70,0001.27
2021-12-12 05:44:00,,0820.5,5.00,0.00,22.3,21.6,00.0,31.4,24.0,10.3,0000.0,0004.11,0001.61,0001.20
2021-12-12 05:45:00,,0820.6,5.00,0.00,22.3,21.6,00.0,31.4,24.0,10.5,0000.0,0003.95,0001.56,0001.18
2021-12-12 05:46:00,,0820.7,5.00,0.00,22.3,21.6,00.0,31.4,24.0,10.2,0000.0,0003.87,0001.52,0001.16
2021-12-12 05:47:00,,0820.7,5.01,0.00,22.3,21.6,00.0,31.4,24.0,09.0,0000.0,0003.98,0001.70,0001.31
2021-12-12 05:48:00,,0820.7,4.99,0.00,22.3,21.6,00.0,31.4,24.0,09.0,0000.0,0004.20,0001.93,0001.49
2021-12-12 05:49:00,,0820.7,5.00,0.00,22.3,21.6,00.0,31.3,24.0,09.2,0000.0,0005.11,0002.16,0001.65
2021-12-12 05:50:00,,0820.7,5.02,0.00,22.3,21.6,00.0,31.3,24.0,08.9,0000.0,0005.40,0002.32,0001.80
2021-12-12 05:51:00,,0820.6,4.98,0.00,22.3,21.6,00.0,31.3,24.0,09.2,0000.0,0006.04,0002.49,0001.95
2021-12-12 05:52:00,,0820.6,5.01,0.00,22.3,21.6,00.0,31.3,23.9,09.8,0000.0,0006.09,0002.54,0002.01
2021-12-12 05:53:00,,0820.5,4.98,0.00,22.3,21.5,00.0,31.3,23.9,09.7,0000.0,0006.13,0002.59,0002.05
2021-12-12 05:54:00,,0820.6,5.01,0.00,22.2,21.5,00.0,31.3,23.9,09.6,0000.0,0006.30,0002.69,0002.12
2021-12-12 05:55:00,,0820.6,4.99,0.00,22.3,21.5,00.0,31.3,23.9,09.7,0000.0,0006.39,0002.75,0002.18
2021-12-12 05:56:00,,0820.6,5.00,0.00,22.2,21.5,00.0,31.3,23.9,09.4,0000.0,0006.49,0002.83,0002.25
2021-12-12 05:57:00,,0820.6,5.02,0.00,22.2,21.5,00.0,31.3,23.9,09.5,0000.0,0006.62,0002.94,0002.34
2021-12-12 05:58:00,,0820.6,5.00,0.00,22.2,21.5,00.0,31.3,23.8,09.8,0000.0,0006.14,0002.89,0002.30
2021-12-12 05:59:00,,0820.6,5.00,0.00,22.2,21.5,00.0,31.3,23.8,09.9,0000.0,0005.56,0002.68,0002.17
